Tracking 21092 objects as of 14-Aug-2020
HD Live streaming from Space Station
objects crossing your sky now
Track the most recent launched group of Starlink satellites

METEOR 1-11

Track METEOR 1-11 now!
10-day predictions
METEOR 1-11 is classified as:


NORAD ID: 5917
Int'l Code: 1972-022A
Perigee: 848.6 km
Apogee: 893.3 km
Inclination: 81.2 °
Period: 102.2 minutes
Semi major axis: 7241 km
RCS: 4.5529 m2 (large)
Launch date: March 30, 1972
Source: Commonwealth of Independent States (former USSR) (CIS)
Launch site: PLESETSK MISSILE AND SPACE COMPLEX (PKMTR)
aabbcc
Your satellite tracking list
Your tracking list is empty




NASA's NSSDC Master Catalog

Two Line Element Set (TLE):
1  5917U 72022A   20227.08064291  .00000006  00000-0 -33693-5 0  9994
2  5917  81.2231 202.4164 0030860 225.3624 134.5029 14.08701931484353
Source of the keplerian elements: AFSPC